Погода в Анциферовском Боре

Россия / Архангельская область     63°34′20″N   39°01′08″E
темп.,
°C
ветер,
м/с
пор.,
м/с
влажн.,
%
обл.,
%
осадки,
мм/ч
давл.,
гПа
погр.,
м
25 февраля, чт
чт2500:00−14ююв4991100 0.0 1015480
03:00−14ююв4994100 0.1 1012489
06:00−14ююв3795100 1.0 1010513
09:00−14ююв3793100 1.4 1010427
12:00−12ююв3590100 0.0 1009489
15:00−11ююв3590100 0.1 1010490
18:00−14ююв279599 0.0 1009162
21:00−13ююв399490 0.0 1008281
26 февраля, пт
пт2600:00−12ююв3895100 0.4 1006319
03:00−11ююв4995100 1.2 1004290
06:00−10ююв4895100 1.4 1001269
09:00−10ююв4795100 2.9 1000256
12:00−8юв3895100 1.9 998283
15:00−7вюв3694100 2.4 998337
18:00−11вюв2695100 0.0 998260
21:00−13в2395100 0.1 1001131
27 февраля, сб
сб2700:00−14вюв2496100 0.1 1002153
03:00−15вюв129698 0.4 100531
06:00−15вюв119785 0.1 100633
09:00−15юв009684 0.2 100939
12:00−11сз129289 0.1 1010276
15:00−9сз139494 0.3 1012301
18:00−9зсз259697 0.3 1013164
21:00−8сз239794 0.4 101483
28 февраля, вс
вс2800:00−9сз249758 0.1 101484
03:00−11зсз239762 0.1 101564
06:00−11зсз239985 0.1 101544
09:00−9зсз249793 0.2 1015177
12:00−6зюз139597 0.0 1016296
15:00−3юз239394 0.1 1016353
18:00−6ююз249578 0.0 101689
21:00−6ююз259689 0.1 1016185
1 марта, пн
пн100:00−2юз2696100 0.1 1015277
03:000зюз3896100 0.1 1014469
06:00−1зюз3994100 0.0 1013369
09:000зюз31191100 0.0 1010507
12:00+1з41195100 0.0 1009765
15:00+1з41296100 0.0 1007600
18:00+1з413100100 0.1 1004605
21:00+1з514100100 3.3 1001797